START_TIME,STEP,MOV.,M6,t_acc.,M7,t_acc.,M19,t_acc.,H36,t_acc.
1979-03-08 18:00:25.070 ,1,1,0.,12.0,0.,12.0,0.,12.0,0.,12.0
1979-03-08 18:00:37.070 ,1,1,7.,12.0,0.,12.0,0.,12.0,0.,12.0
1979-03-08 18:00:49.070 ,0,1,3.,12.0,0.,12.0,0.,12.0,0.,12.0
1979-03-08 18:01:01.070 ,0,1,1.,12.0,0.,12.0,0.,12.0,0.,12.0
1979-03-08 18:01:13.070 ,0,1,3.,12.0,0.,12.0,0.,12.0,0.,12.0
1979-03-08 18:01:25.070 ,0,1,4.,12.0,0.,12.0,0.,12.0,0.,12.0
1979-03-08 18:01:37.070 ,1,1,2.,12.0,0.,12.0,0.,12.0,0.,12.0
1979-03-08 18:01:49.070 ,1,1,1.,12.0,0.,12.0,0.,12.0,0.,12.0
1979-03-08 18:02:01.070 ,2,1,4.,12.0,0.,12.0,0.,12.0,0.,12.0
1979-03-08 18:02:13.070 ,2,1,3.,12.0,0.,12.0,0.,12.0,0.,12.0
1979-03-08 18:02:25.080 ,3,1,2.,12.0,0.,12.0,0.,12.0,0.,12.0
1979-03-08 18:02:37.080 ,3,1,1.,12.0,0.,12.0,0.,12.0,0.,12.0
1979-03-08 18:02:49.080 ,4,1,1.,12.0,0.,12.0,0.,12.0,0.,12.0
1979-03-08 18:03:01.080 ,4,1,0.,12.0,0.,12.0,0.,12.0,0.,12.0
1979-03-08 18:03:13.080 ,5,1,2.,12.0,0.,12.0,0.,12.0,0.,12.0
1979-03-08 18:03:25.080 ,5,1,0.,12.0,0.,12.0,0.,12.0,0.,12.0
1979-03-08 18:03:37.080 ,6,1,0.,12.0,0.,12.0,0.,12.0,0.,12.0
1979-03-08 18:03:49.080 ,6,1,0.,12.0,0.,12.0,0.,12.0,0.,12.0
1979-03-08 18:04:01.080 ,7,1,1.,12.0,0.,12.0,0.,12.0,0.,12.0
1979-03-08 18:04:13.080 ,7,1,0.,12.0,0.,12.0,0.,12.0,0.,12.0
1979-03-08 18:04:25.080 ,0,0,0.,12.0,0.,12.0,0.,12.0,0.,12.0
1979-03-08 18:04:37.080 ,0,0,0.,12.0,0.,12.0,0.,12.0,0.,12.0
1979-03-08 18:04:49.080 ,6,1,0.,12.0,0.,12.0,0.,12.0,0.,12.0
1979-03-08 18:05:01.080 ,6,1,2.,12.0,0.,12.0,0.,12.0,0.,12.0
1979-03-08 18:05:13.080 ,5,1,3.,12.0,0.,12.0,0.,12.0,0.,12.0
1979-03-08 18:05:25.080 ,5,1,0.,12.0,0.,12.0,0.,12.0,0.,12.0
1979-03-08 18:05:37.080 ,4,1,1.,12.0,0.,12.0,0.,12.0,0.,12.0
1979-03-08 18:05:49.080 ,4,1,1.,12.0,0.,12.0,0.,12.0,0.,12.0
1979-03-08 18:06:01.080 ,3,1,0.,12.0,0.,12.0,0.,12.0,0.,12.0
1979-03-08 18:06:13.080 ,3,1,4.,12.0,0.,12.0,0.,12.0,0.,12.0
1979-03-08 18:06:25.080 ,2,1,2.,12.0,0.,12.0,0.,12.0,0.,12.0
1979-03-08 18:06:37.080 ,2,1,2.,12.0,0.,12.0,0.,12.0,0.,12.0
1979-03-08 18:06:49.080 ,1,1,3.,12.0,0.,12.0,0.,12.0,0.,12.0
1979-03-08 18:07:01.080 ,1,1,2.,12.0,0.,12.0,0.,12.0,0.,12.0
1979-03-08 18:07:13.080 ,0,1,2.,12.0,0.,12.0,0.,12.0,0.,12.0
1979-03-08 18:07:25.080 ,0,1,3.,12.0,0.,12.0,0.,12.0,0.,12.0
1979-03-08 18:07:37.080 ,0,1,1.,12.0,0.,12.0,0.,12.0,0.,12.0
1979-03-08 18:07:49.080 ,0,1,5.,12.0,0.,12.0,0.,12.0,0.,12.0
1979-03-08 18:08:01.080 ,1,1,3.,12.0,0.,12.0,0.,12.0,0.,12.0
1979-03-08 18:08:13.080 ,1,1,4.,12.0,0.,12.0,0.,12.0,0.,12.0
1979-03-08 18:08:25.080 ,2,1,3.,12.0,0.,12.0,0.,12.0,0.,12.0
1979-03-08 18:08:37.080 ,2,1,3.,12.0,0.,12.0,0.,12.0,1.,12.0
1979-03-08 18:08:49.070 ,3,1,5.,12.0,0.,12.0,0.,12.0,0.,12.0
1979-03-08 18:09:01.080 ,3,1,7.,12.0,0.,12.0,0.,12.0,0.,12.0
1979-03-08 18:09:13.070 ,4,1,2.,12.0,0.,12.0,0.,12.0,0.,12.0
1979-03-08 18:09:25.080 ,4,1,1.,12.0,0.,12.0,0.,12.0,0.,12.0
1979-03-08 18:09:37.070 ,5,1,0.,12.0,0.,12.0,0.,12.0,0.,12.0
1979-03-08 18:09:49.080 ,5,1,0.,12.0,0.,12.0,0.,12.0,0.,12.0
1979-03-08 18:10:01.070 ,6,1,3.,12.0,0.,12.0,0.,12.0,0.,12.0
1979-03-08 18:10:13.080 ,6,1,0.,12.0,1.,12.0,0.,12.0,0.,12.0
1979-03-08 18:10:25.080 ,7,1,0.,12.0,0.,12.0,0.,12.0,0.,12.0
1979-03-08 18:10:37.080 ,7,1,0.,12.0,0.,12.0,0.,12.0,0.,12.0
1979-03-08 18:10:49.080 ,7,1,0.,12.0,0.,12.0,0.,12.0,0.,12.0
1979-03-08 18:11:01.080 ,7,1,0.,12.0,0.,12.0,0.,12.0,0.,12.0
1979-03-08 18:11:13.080 ,6,1,0.,12.0,0.,12.0,0.,12.0,0.,12.0
1979-03-08 18:11:25.080 ,6,1,1.,12.0,0.,12.0,0.,12.0,0.,12.0
1979-03-08 18:11:37.080 ,5,1,1.,12.0,0.,12.0,0.,12.0,0.,12.0
1979-03-08 18:11:49.080 ,5,1,0.,12.0,0.,12.0,0.,12.0,0.,12.0
1979-03-08 18:12:01.080 ,4,1,2.,12.0,0.,12.0,0.,12.0,0.,12.0
1979-03-08 18:12:13.080 ,4,1,2.,12.0,0.,12.0,0.,12.0,0.,12.0
1979-03-08 18:12:25.080 ,3,1,1.,12.0,0.,12.0,0.,12.0,0.,12.0
1979-03-08 18:12:37.080 ,3,1,5.,12.0,0.,12.0,0.,12.0,0.,12.0
1979-03-08 18:12:49.080 ,2,1,2.,12.0,0.,12.0,0.,12.0,0.,12.0
1979-03-08 18:13:01.080 ,2,1,7.,12.0,0.,12.0,0.,12.0,0.,12.0
1979-03-08 18:13:13.080 ,1,1,2.,12.0,0.,12.0,0.,12.0,0.,12.0
1979-03-08 18:13:25.080 ,1,1,4.,12.0,0.,12.0,0.,12.0,0.,12.0
1979-03-08 18:13:37.080 ,1,0,0.,12.0,0.,12.0,0.,12.0,0.,12.0
1979-03-08 18:13:49.080 ,1,0,,0,,0,,0,,0
1979-03-08 18:14:01.080 ,0,1,2.,12.0,0.,12.0,0.,12.0,0.,12.0
1979-03-08 18:14:13.080 ,0,1,1.,12.0,0.,12.0,0.,12.0,0.,12.0
1979-03-08 18:14:25.080 ,1,1,1.,12.0,0.,12.0,0.,12.0,0.,12.0
1979-03-08 18:14:37.080 ,1,1,2.,12.0,0.,12.0,0.,12.0,0.,12.0
1979-03-08 18:14:49.080 ,2,1,2.,12.0,0.,12.0,0.,12.0,0.,12.0
1979-03-08 18:15:01.080 ,2,1,4.,12.0,0.,12.0,0.,12.0,0.,12.0
1979-03-08 18:15:13.080 ,3,1,7.,12.0,0.,12.0,0.,12.0,1.,12.0
1979-03-08 18:15:25.080 ,3,1,1.,12.0,0.,12.0,0.,12.0,0.,12.0
1979-03-08 18:15:37.080 ,4,1,4.,12.0,0.,12.0,0.,12.0,0.,12.0
1979-03-08 18:15:49.080 ,4,1,1.,12.0,0.,12.0,0.,12.0,0.,12.0
1979-03-08 18:16:01.080 ,5,1,2.,12.0,0.,12.0,0.,12.0,0.,12.0
1979-03-08 18:16:13.080 ,5,1,0.,12.0,0.,12.0,0.,12.0,0.,12.0
1979-03-08 18:16:25.080 ,6,1,5.,12.0,0.,12.0,0.,12.0,0.,12.0
1979-03-08 18:16:37.080 ,6,1,0.,12.0,0.,12.0,0.,12.0,0.,12.0
1979-03-08 18:16:49.080 ,7,1,1.,12.0,0.,12.0,0.,12.0,0.,12.0
1979-03-08 18:17:01.080 ,7,1,0.,12.0,0.,12.0,0.,12.0,0.,12.0
1979-03-08 18:17:13.080 ,7,1,0.,12.0,0.,12.0,0.,12.0,0.,12.0
1979-03-08 18:17:25.080 ,7,1,0.,12.0,0.,12.0,0.,12.0,0.,12.0
1979-03-08 18:17:37.080 ,6,1,0.,12.0,0.,12.0,0.,12.0,0.,12.0
1979-03-08 18:17:49.080 ,6,1,0.,12.0,0.,12.0,0.,12.0,0.,12.0
1979-03-08 18:18:01.080 ,5,1,0.,12.0,0.,12.0,0.,12.0,0.,12.0
1979-03-08 18:18:13.080 ,5,1,1.,12.0,0.,12.0,0.,12.0,0.,12.0
1979-03-08 18:18:25.080 ,4,1,2.,12.0,0.,12.0,0.,12.0,0.,12.0
1979-03-08 18:18:37.080 ,4,1,4.,12.0,0.,12.0,0.,12.0,0.,12.0
1979-03-08 18:18:49.080 ,3,1,6.,12.0,0.,12.0,0.,12.0,0.,12.0
1979-03-08 18:19:01.080 ,3,1,5.,12.0,0.,12.0,0.,12.0,0.,12.0
1979-03-08 18:19:13.080 ,2,1,7.,12.0,0.,12.0,0.,12.0,0.,12.0
1979-03-08 18:19:25.080 ,2,1,2.,12.0,0.,12.0,0.,12.0,0.,12.0
1979-03-08 18:19:37.080 ,1,1,2.,12.0,0.,12.0,0.,12.0,0.,12.0
1979-03-08 18:19:49.080 ,1,1,0.,12.0,0.,12.0,0.,12.0,0.,12.0
1979-03-08 18:20:01.080 ,0,1,2.,12.0,0.,12.0,0.,12.0,0.,12.0
1979-03-08 18:20:13.080 ,0,1,0.,12.0,0.,12.0,0.,12.0,0.,12.0
1979-03-08 18:20:25.080 ,0,1,1.,12.0,0.,12.0,0.,12.0,0.,12.0
1979-03-08 18:20:37.080 ,0,1,0.,12.0,0.,12.0,0.,12.0,0.,12.0
1979-03-08 18:20:49.080 ,1,1,1.,12.0,0.,12.0,0.,12.0,0.,12.0
1979-03-08 18:21:01.080 ,1,1,0.,12.0,0.,12.0,0.,12.0,0.,12.0
1979-03-08 18:21:13.080 ,2,1,0.,12.0,0.,12.0,0.,12.0,0.,12.0
1979-03-08 18:21:25.080 ,2,1,0.,12.0,0.,12.0,0.,12.0,0.,12.0
1979-03-08 18:21:37.080 ,3,1,2.,12.0,0.,12.0,0.,12.0,0.,12.0
1979-03-08 18:21:49.080 ,3,1,3.,12.0,0.,12.0,0.,12.0,0.,12.0
1979-03-08 18:22:01.080 ,4,1,2.,12.0,0.,12.0,0.,12.0,0.,12.0
1979-03-08 18:22:13.080 ,4,1,1.,12.0,0.,12.0,0.,12.0,0.,12.0
1979-03-08 18:22:25.080 ,5,1,5.,12.0,0.,12.0,0.,12.0,0.,12.0
1979-03-08 18:22:37.080 ,5,1,2.,12.0,0.,12.0,0.,12.0,0.,12.0
1979-03-08 18:22:49.080 ,6,1,2.,12.0,0.,12.0,0.,12.0,0.,12.0
1979-03-08 18:23:01.080 ,6,1,4.,12.0,0.,12.0,0.,12.0,0.,12.0
1979-03-08 18:23:13.080 ,7,1,1.,12.0,0.,12.0,0.,12.0,0.,12.0
1979-03-08 18:23:25.080 ,7,1,0.,12.0,0.,12.0,0.,12.0,0.,12.0
1979-03-08 18:23:37.080 ,7,1,0.,12.0,0.,12.0,0.,12.0,0.,12.0
1979-03-08 18:23:49.080 ,7,1,0.,12.0,0.,12.0,0.,12.0,0.,12.0
1979-03-08 18:24:01.080 ,6,1,0.,12.0,0.,12.0,0.,12.0,0.,12.0
1979-03-08 18:24:13.080 ,6,1,0.,12.0,0.,12.0,0.,12.0,0.,12.0
1979-03-08 18:24:25.080 ,5,1,0.,12.0,0.,12.0,0.,12.0,0.,12.0
1979-03-08 18:24:37.080 ,5,1,2.,12.0,0.,12.0,0.,12.0,0.,12.0
1979-03-08 18:24:49.080 ,4,1,1.,12.0,0.,12.0,0.,12.0,1.,12.0
1979-03-08 18:25:01.080 ,4,1,5.,12.0,0.,12.0,0.,12.0,0.,12.0
1979-03-08 18:25:13.080 ,3,1,3.,12.0,0.,12.0,0.,12.0,0.,12.0
1979-03-08 18:25:25.080 ,3,1,8.,12.0,0.,12.0,0.,12.0,0.,12.0
1979-03-08 18:25:37.080 ,2,1,1.,12.0,0.,12.0,0.,12.0,0.,12.0
1979-03-08 18:25:49.080 ,2,1,1.,12.0,0.,12.0,0.,12.0,0.,12.0
1979-03-08 18:26:01.080 ,1,1,2.,12.0,0.,12.0,0.,12.0,0.,12.0
1979-03-08 18:26:13.080 ,1,1,0.,12.0,0.,12.0,0.,12.0,0.,12.0
1979-03-08 18:26:25.080 ,0,1,0.,12.0,0.,12.0,0.,12.0,0.,12.0
1979-03-08 18:26:37.080 ,0,1,1.,12.0,0.,12.0,0.,12.0,0.,12.0
1979-03-08 18:26:49.080 ,0,1,0.,12.0,0.,12.0,0.,12.0,0.,12.0
1979-03-08 18:27:01.080 ,0,1,0.,12.0,0.,12.0,0.,12.0,0.,12.0
1979-03-08 18:27:13.080 ,1,1,0.,12.0,0.,12.0,0.,12.0,0.,12.0
1979-03-08 18:27:25.080 ,1,1,1.,12.0,0.,12.0,0.,12.0,0.,12.0
1979-03-08 18:27:37.080 ,2,1,1.,12.0,0.,12.0,0.,12.0,0.,12.0
1979-03-08 18:27:49.080 ,2,1,3.,12.0,0.,12.0,0.,12.0,0.,12.0
1979-03-08 18:28:01.080 ,3,1,5.,12.0,0.,12.0,0.,12.0,0.,12.0
1979-03-08 18:28:13.080 ,3,1,6.,12.0,0.,12.0,0.,12.0,0.,12.0
1979-03-08 18:28:25.080 ,4,1,2.,12.0,0.,12.0,0.,12.0,0.,12.0
1979-03-08 18:28:37.080 ,4,1,2.,12.0,0.,12.0,0.,12.0,0.,12.0
1979-03-08 18:28:49.080 ,5,1,1.,12.0,0.,12.0,0.,12.0,0.,12.0
1979-03-08 18:29:01.080 ,5,1,2.,12.0,0.,12.0,0.,12.0,0.,12.0
1979-03-08 18:29:13.080 ,6,1,1.,12.0,0.,12.0,0.,12.0,0.,12.0
1979-03-08 18:29:25.080 ,6,1,0.,12.0,0.,12.0,0.,12.0,0.,12.0
1979-03-08 18:29:37.080 ,7,1,1.,12.0,0.,12.0,0.,12.0,0.,12.0
1979-03-08 18:29:49.080 ,7,1,1.,12.0,0.,12.0,0.,12.0,0.,12.0
1979-03-08 18:30:01.080 ,7,1,0.,12.0,0.,12.0,0.,12.0,0.,12.0
1979-03-08 18:30:13.080 ,7,1,0.,12.0,0.,12.0,0.,12.0,0.,12.0
1979-03-08 18:30:25.080 ,6,1,0.,12.0,0.,12.0,0.,12.0,0.,12.0
1979-03-08 18:30:37.080 ,6,1,1.,12.0,0.,12.0,0.,12.0,0.,12.0
1979-03-08 18:30:49.080 ,5,1,1.,12.0,0.,12.0,0.,12.0,0.,12.0
1979-03-08 18:31:01.080 ,5,1,3.,12.0,0.,12.0,0.,12.0,0.,12.0
1979-03-08 18:31:13.080 ,4,1,4.,12.0,0.,12.0,0.,12.0,0.,12.0
1979-03-08 18:31:25.080 ,4,1,1.,12.0,0.,12.0,0.,12.0,0.,12.0
1979-03-08 18:31:37.080 ,3,1,6.,12.0,0.,12.0,0.,12.0,0.,12.0
1979-03-08 18:31:49.080 ,3,1,4.,12.0,0.,12.0,0.,12.0,0.,12.0
1979-03-08 18:32:01.080 ,2,1,4.,12.0,0.,12.0,0.,12.0,0.,12.0
1979-03-08 18:32:13.080 ,2,1,0.,12.0,0.,12.0,0.,12.0,0.,12.0
1979-03-08 18:32:25.080 ,1,1,3.,12.0,0.,12.0,0.,12.0,0.,12.0
1979-03-08 18:32:37.080 ,1,1,0.,12.0,0.,12.0,0.,12.0,0.,12.0
1979-03-08 18:32:49.080 ,0,1,0.,12.0,0.,12.0,0.,12.0,0.,12.0
1979-03-08 18:33:01.080 ,0,1,0.,12.0,0.,12.0,0.,12.0,0.,12.0
1979-03-08 18:33:13.080 ,0,1,0.,12.0,0.,12.0,0.,12.0,0.,12.0
1979-03-08 18:33:25.080 ,0,1,0.,12.0,0.,12.0,0.,12.0,0.,12.0
1979-03-08 18:33:37.080 ,1,1,0.,12.0,0.,12.0,0.,12.0,0.,12.0
1979-03-08 18:33:49.080 ,1,1,0.,12.0,0.,12.0,0.,12.0,0.,12.0
1979-03-08 18:34:01.080 ,2,1,0.,12.0,0.,12.0,0.,12.0,0.,12.0
1979-03-08 18:34:13.080 ,2,1,0.,12.0,0.,12.0,0.,12.0,0.,12.0
1979-03-08 18:34:25.080 ,3,1,1.,12.0,0.,12.0,0.,12.0,0.,12.0
1979-03-08 18:34:37.080 ,3,1,1.,12.0,0.,12.0,0.,12.0,0.,12.0
1979-03-08 18:34:49.080 ,4,1,3.,12.0,0.,12.0,0.,12.0,0.,12.0
1979-03-08 18:35:01.080 ,4,1,3.,12.0,0.,12.0,0.,12.0,0.,12.0
1979-03-08 18:35:13.080 ,5,1,3.,12.0,0.,12.0,0.,12.0,0.,12.0
1979-03-08 18:35:25.080 ,5,1,0.,12.0,0.,12.0,0.,12.0,0.,12.0
1979-03-08 18:35:37.080 ,6,1,1.,12.0,0.,12.0,0.,12.0,0.,12.0
1979-03-08 18:35:49.080 ,6,1,0.,12.0,0.,12.0,0.,12.0,0.,12.0
1979-03-08 18:36:01.080 ,7,1,2.,12.0,0.,12.0,0.,12.0,0.,12.0
1979-03-08 18:36:13.080 ,7,1,0.,12.0,0.,12.0,0.,12.0,0.,12.0
1979-03-08 18:36:25.080 ,7,1,0.,12.0,0.,12.0,0.,12.0,0.,12.0
1979-03-08 18:36:37.080 ,7,1,0.,12.0,0.,12.0,0.,12.0,0.,12.0
1979-03-08 18:36:49.080 ,6,1,0.,12.0,0.,12.0,0.,12.0,0.,12.0
1979-03-08 18:37:01.080 ,6,1,0.,12.0,0.,12.0,0.,12.0,0.,12.0
1979-03-08 18:37:13.080 ,5,1,1.,12.0,0.,12.0,0.,12.0,0.,12.0
1979-03-08 18:37:25.080 ,5,1,2.,12.0,0.,12.0,0.,12.0,0.,12.0
1979-03-08 18:37:37.080 ,4,1,2.,12.0,0.,12.0,0.,12.0,0.,12.0
1979-03-08 18:37:49.080 ,4,1,3.,12.0,0.,12.0,0.,12.0,0.,12.0
1979-03-08 18:38:01.080 ,3,1,1.,12.0,0.,12.0,0.,12.0,0.,12.0
1979-03-08 18:38:13.080 ,3,1,1.,12.0,0.,12.0,0.,12.0,0.,12.0
1979-03-08 18:38:25.080 ,2,1,2.,12.0,0.,12.0,0.,12.0,0.,12.0
1979-03-08 18:38:37.080 ,2,1,0.,12.0,0.,12.0,0.,12.0,0.,12.0
1979-03-08 18:38:49.080 ,1,1,1.,12.0,0.,12.0,0.,12.0,0.,12.0
1979-03-08 18:39:01.080 ,1,1,0.,12.0,0.,12.0,0.,12.0,0.,12.0
1979-03-08 18:39:13.080 ,0,0,3.,12.0,0.,12.0,0.,12.0,0.,12.0
1979-03-08 18:39:25.080 ,0,0,0.,12.0,0.,12.0,0.,12.0,0.,12.0
1979-03-08 18:39:37.080 ,0,1,0.,12.0,0.,12.0,0.,12.0,0.,12.0
1979-03-08 18:39:49.080 ,0,1,0.,12.0,0.,12.0,0.,12.0,0.,12.0
1979-03-08 18:40:01.080 ,1,1,1.,12.0,0.,12.0,0.,12.0,0.,12.0
1979-03-08 18:40:13.080 ,1,1,0.,12.0,0.,12.0,0.,12.0,0.,12.0
1979-03-08 18:40:25.080 ,2,1,1.,12.0,0.,12.0,0.,12.0,0.,12.0
1979-03-08 18:40:37.080 ,2,1,0.,12.0,0.,12.0,0.,12.0,0.,12.0
1979-03-08 18:40:49.080 ,3,1,1.,12.0,0.,12.0,0.,12.0,0.,12.0
1979-03-08 18:41:01.080 ,3,1,2.,12.0,0.,12.0,0.,12.0,0.,12.0
1979-03-08 18:41:13.080 ,4,1,1.,12.0,0.,12.0,0.,12.0,0.,12.0
1979-03-08 18:41:25.080 ,4,1,3.,12.0,0.,12.0,0.,12.0,0.,12.0
1979-03-08 18:41:37.080 ,5,1,1.,12.0,0.,12.0,0.,12.0,0.,12.0
1979-03-08 18:41:49.080 ,5,1,3.,12.0,0.,12.0,0.,12.0,0.,12.0
1979-03-08 18:42:01.080 ,6,1,2.,12.0,0.,12.0,0.,12.0,0.,12.0
1979-03-08 18:42:13.080 ,6,1,0.,12.0,0.,12.0,0.,12.0,0.,12.0
1979-03-08 18:42:25.080 ,7,1,0.,12.0,0.,12.0,0.,12.0,0.,12.0
1979-03-08 18:42:37.080 ,7,1,0.,12.0,0.,12.0,0.,12.0,0.,12.0
1979-03-08 18:42:49.080 ,7,1,0.,12.0,0.,12.0,0.,12.0,0.,12.0
1979-03-08 18:43:01.080 ,7,1,0.,12.0,0.,12.0,0.,12.0,0.,12.0
1979-03-08 18:43:13.080 ,6,1,0.,12.0,0.,12.0,0.,12.0,0.,12.0
1979-03-08 18:43:25.080 ,6,1,0.,12.0,0.,12.0,0.,12.0,0.,12.0
1979-03-08 18:43:37.080 ,5,1,0.,12.0,0.,12.0,0.,12.0,0.,12.0
1979-03-08 18:43:49.080 ,5,1,2.,12.0,0.,12.0,0.,12.0,0.,12.0
1979-03-08 18:44:01.080 ,4,1,0.,12.0,0.,12.0,0.,12.0,0.,12.0
1979-03-08 18:44:13.080 ,4,1,2.,12.0,0.,12.0,0.,12.0,1.,12.0
1979-03-08 18:44:25.080 ,3,1,4.,12.0,0.,12.0,0.,12.0,0.,12.0
1979-03-08 18:44:37.080 ,3,1,3.,12.0,0.,12.0,0.,12.0,0.,12.0
1979-03-08 18:44:49.080 ,2,1,3.,12.0,0.,12.0,0.,12.0,0.,12.0
1979-03-08 18:45:01.080 ,2,1,2.,12.0,0.,12.0,0.,12.0,0.,12.0
1979-03-08 18:45:13.080 ,1,1,0.,12.0,0.,12.0,0.,12.0,0.,12.0
1979-03-08 18:45:25.080 ,1,1,1.,12.0,0.,12.0,0.,12.0,0.,12.0
1979-03-08 18:45:37.080 ,0,1,0.,12.0,0.,12.0,0.,12.0,0.,12.0
1979-03-08 18:45:49.080 ,0,1,1.,12.0,0.,12.0,0.,12.0,0.,12.0
1979-03-08 18:46:01.080 ,0,1,2.,12.0,0.,12.0,0.,12.0,0.,12.0
1979-03-08 18:46:13.080 ,0,1,1.,12.0,0.,12.0,0.,12.0,0.,12.0
1979-03-08 18:46:25.080 ,1,1,1.,12.0,0.,12.0,0.,12.0,0.,12.0
1979-03-08 18:46:37.080 ,1,1,0.,12.0,0.,12.0,0.,12.0,0.,12.0
1979-03-08 18:46:49.080 ,2,1,2.,12.0,0.,12.0,0.,12.0,0.,12.0
1979-03-08 18:47:01.080 ,2,1,3.,12.0,0.,12.0,0.,12.0,0.,12.0
1979-03-08 18:47:13.080 ,3,1,0.,12.0,0.,12.0,0.,12.0,0.,12.0
1979-03-08 18:47:25.080 ,3,1,0.,12.0,0.,12.0,0.,12.0,0.,12.0
1979-03-08 18:47:37.080 ,4,1,0.,12.0,0.,12.0,0.,12.0,0.,12.0
1979-03-08 18:47:49.080 ,4,1,1.,12.0,0.,12.0,0.,12.0,0.,12.0
1979-03-08 18:48:01.080 ,5,1,2.,12.0,0.,12.0,0.,12.0,0.,12.0
1979-03-08 18:48:13.080 ,5,1,4.,12.0,0.,12.0,0.,12.0,0.,12.0
1979-03-08 18:48:25.080 ,6,1,2.,12.0,0.,12.0,0.,12.0,0.,12.0
1979-03-08 18:48:37.080 ,6,1,1.,12.0,0.,12.0,0.,12.0,0.,12.0
1979-03-08 18:48:49.080 ,7,1,1.,12.0,0.,12.0,0.,12.0,0.,12.0
1979-03-08 18:49:01.080 ,7,1,0.,12.0,0.,12.0,0.,12.0,0.,12.0
1979-03-08 18:49:13.080 ,7,1,0.,12.0,0.,12.0,0.,12.0,0.,12.0
1979-03-08 18:49:25.080 ,7,1,0.,12.0,0.,12.0,0.,12.0,0.,12.0
1979-03-08 18:49:37.080 ,6,1,0.,12.0,0.,12.0,0.,12.0,0.,12.0
1979-03-08 18:49:49.080 ,6,1,1.,12.0,0.,12.0,0.,12.0,0.,12.0
1979-03-08 18:50:01.080 ,5,1,0.,12.0,0.,12.0,0.,12.0,0.,12.0
1979-03-08 18:50:13.080 ,5,1,3.,12.0,0.,12.0,0.,12.0,0.,12.0
1979-03-08 18:50:25.080 ,4,1,1.,12.0,0.,12.0,0.,12.0,0.,12.0
1979-03-08 18:50:37.080 ,4,1,2.,12.0,0.,12.0,0.,12.0,0.,12.0
1979-03-08 18:50:49.080 ,3,1,1.,12.0,0.,12.0,0.,12.0,0.,12.0
1979-03-08 18:51:01.080 ,3,1,5.,12.0,0.,12.0,0.,12.0,0.,12.0
1979-03-08 18:51:13.080 ,2,1,3.,12.0,0.,12.0,0.,12.0,0.,12.0
1979-03-08 18:51:25.080 ,2,1,3.,12.0,0.,12.0,0.,12.0,0.,12.0
1979-03-08 18:51:37.080 ,1,1,0.,12.0,0.,12.0,0.,12.0,0.,12.0
1979-03-08 18:51:49.080 ,1,1,1.,12.0,0.,12.0,0.,12.0,0.,12.0
1979-03-08 18:52:01.080 ,0,1,0.,12.0,0.,12.0,0.,12.0,0.,12.0
1979-03-08 18:52:13.080 ,0,1,0.,12.0,0.,12.0,0.,12.0,0.,12.0
1979-03-08 18:52:25.080 ,0,1,0.,12.0,0.,12.0,0.,12.0,0.,12.0
1979-03-08 18:52:37.080 ,0,1,1.,12.0,0.,12.0,0.,12.0,0.,12.0
1979-03-08 18:52:49.080 ,1,1,0.,12.0,0.,12.0,0.,12.0,0.,12.0
1979-03-08 18:53:01.080 ,1,1,1.,12.0,0.,12.0,0.,12.0,0.,12.0
1979-03-08 18:53:13.080 ,2,1,1.,12.0,0.,12.0,0.,12.0,0.,12.0
1979-03-08 18:53:25.080 ,2,1,1.,12.0,0.,12.0,0.,12.0,0.,12.0
1979-03-08 18:53:37.080 ,3,1,0.,12.0,0.,12.0,0.,12.0,0.,12.0
1979-03-08 18:53:49.080 ,3,1,0.,12.0,0.,12.0,0.,12.0,0.,12.0
1979-03-08 18:54:01.080 ,4,1,4.,12.0,0.,12.0,0.,12.0,0.,12.0
1979-03-08 18:54:13.080 ,4,1,2.,12.0,0.,12.0,0.,12.0,0.,12.0
1979-03-08 18:54:25.080 ,5,1,1.,12.0,0.,12.0,0.,12.0,0.,12.0
1979-03-08 18:54:37.080 ,5,1,1.,12.0,0.,12.0,0.,12.0,0.,12.0
1979-03-08 18:54:49.080 ,0,0,0.,12.0,0.,12.0,0.,12.0,0.,12.0
1979-03-08 18:55:01.080 ,0,0,2.,12.0,0.,12.0,0.,12.0,0.,12.0
1979-03-08 18:56:35.880 ,0,0,,0,,0,,0,,0
1979-03-08 18:56:47.880 ,0,0,1.,12.0,0.,12.0,0.,12.0,0.,12.0
1979-03-08 18:56:49.080 ,4,1,1.,12.0,0.,12.0,0.,12.0,0.,12.0
1979-03-08 18:57:01.080 ,4,1,5.,12.0,0.,12.0,0.,12.0,0.,12.0
1979-03-08 18:57:13.080 ,3,1,1.,12.0,0.,12.0,0.,12.0,0.,12.0
1979-03-08 18:57:25.080 ,3,1,4.,12.0,0.,12.0,0.,12.0,0.,12.0
1979-03-08 18:57:37.080 ,2,1,1.,12.0,0.,12.0,0.,12.0,0.,12.0
1979-03-08 18:57:49.080 ,2,1,1.,12.0,0.,12.0,0.,12.0,0.,12.0
1979-03-08 18:58:01.080 ,1,1,1.,12.0,0.,12.0,0.,12.0,0.,12.0
1979-03-08 18:58:13.080 ,1,1,0.,12.0,0.,12.0,0.,12.0,0.,12.0
1979-03-08 18:58:25.080 ,0,1,0.,12.0,0.,12.0,0.,12.0,0.,12.0
1979-03-08 18:58:37.080 ,0,1,0.,12.0,0.,12.0,0.,12.0,0.,12.0
1979-03-08 18:58:49.080 ,0,1,0.,12.0,0.,12.0,0.,12.0,0.,12.0
1979-03-08 18:59:01.080 ,0,1,0.,12.0,0.,12.0,0.,12.0,0.,12.0
1979-03-08 18:59:13.080 ,1,1,0.,12.0,0.,12.0,0.,12.0,0.,12.0
1979-03-08 18:59:25.080 ,1,1,0.,12.0,0.,12.0,0.,12.0,0.,12.0
1979-03-08 18:59:37.080 ,2,1,3.,12.0,0.,12.0,0.,12.0,0.,12.0
1979-03-08 18:59:49.080 ,2,1,3.,12.0,0.,12.0,0.,12.0,0.,12.0
1979-03-08 19:00:01.080 ,3,1,1.,12.0,0.,12.0,0.,12.0,0.,12.0
1979-03-08 19:00:13.080 ,3,1,2.,12.0,0.,12.0,0.,12.0,0.,12.0
1979-03-08 19:00:25.080 ,4,1,1.,12.0,0.,12.0,0.,12.0,0.,12.0
1979-03-08 19:00:37.080 ,4,1,2.,12.0,0.,12.0,0.,12.0,0.,12.0
1979-03-08 19:00:49.080 ,5,1,2.,12.0,0.,12.0,0.,12.0,0.,12.0
1979-03-08 19:01:01.080 ,5,1,2.,12.0,0.,12.0,0.,12.0,0.,12.0
1979-03-08 19:01:13.080 ,6,1,1.,12.0,0.,12.0,0.,12.0,0.,12.0
1979-03-08 19:01:25.080 ,6,1,1.,12.0,0.,12.0,0.,12.0,0.,12.0
1979-03-08 19:01:37.080 ,7,1,3.,12.0,0.,12.0,0.,12.0,0.,12.0
1979-03-08 19:01:49.080 ,7,1,0.,12.0,0.,12.0,0.,12.0,0.,12.0
1979-03-08 19:02:01.080 ,7,1,0.,12.0,0.,12.0,0.,12.0,0.,12.0
1979-03-08 19:02:13.080 ,7,1,0.,12.0,0.,12.0,0.,12.0,0.,12.0
1979-03-08 19:02:25.080 ,6,1,0.,12.0,0.,12.0,0.,12.0,0.,12.0
1979-03-08 19:02:37.080 ,6,1,1.,12.0,0.,12.0,0.,12.0,0.,12.0
1979-03-08 19:02:49.080 ,5,1,1.,12.0,0.,12.0,0.,12.0,0.,12.0
1979-03-08 19:03:01.080 ,5,1,2.,12.0,0.,12.0,0.,12.0,0.,12.0
1979-03-08 19:03:13.080 ,4,1,2.,12.0,0.,12.0,0.,12.0,0.,12.0
1979-03-08 19:03:25.080 ,4,1,3.,12.0,0.,12.0,0.,12.0,0.,12.0
1979-03-08 19:03:37.080 ,3,1,1.,12.0,0.,12.0,0.,12.0,0.,12.0
1979-03-08 19:03:49.080 ,3,1,1.,12.0,0.,12.0,0.,12.0,0.,12.0
1979-03-08 19:04:01.080 ,2,1,5.,12.0,0.,12.0,0.,12.0,0.,12.0
1979-03-08 19:04:13.080 ,2,1,9.,12.0,0.,12.0,0.,12.0,0.,12.0
1979-03-08 19:04:25.080 ,1,1,11.,12.0,0.,12.0,0.,12.0,0.,12.0
1979-03-08 19:04:37.080 ,1,1,6.,12.0,0.,12.0,0.,12.0,0.,12.0
1979-03-08 19:04:49.080 ,0,1,4.,12.0,0.,12.0,0.,12.0,0.,12.0
1979-03-08 19:05:01.080 ,0,1,1.,12.0,0.,12.0,0.,12.0,0.,12.0
1979-03-08 19:05:13.080 ,0,1,0.,12.0,0.,12.0,0.,12.0,0.,12.0
1979-03-08 19:05:25.080 ,0,1,2.,12.0,0.,12.0,0.,12.0,0.,12.0
1979-03-08 19:05:37.080 ,1,1,2.,12.0,0.,12.0,0.,12.0,0.,12.0
1979-03-08 19:05:49.080 ,1,1,6.,12.0,0.,12.0,0.,12.0,0.,12.0
1979-03-08 19:06:01.080 ,2,1,5.,12.0,0.,12.0,0.,12.0,0.,12.0
1979-03-08 19:06:13.080 ,2,1,5.,12.0,0.,12.0,0.,12.0,0.,12.0
1979-03-08 19:06:25.080 ,3,1,7.,12.0,0.,12.0,0.,12.0,0.,12.0
1979-03-08 19:06:37.080 ,3,1,16.,12.0,0.,12.0,0.,12.0,1.,12.0
1979-03-08 19:06:49.080 ,4,1,6.,12.0,0.,12.0,0.,12.0,0.,12.0
1979-03-08 19:07:01.080 ,4,1,8.,12.0,0.,12.0,0.,12.0,0.,12.0
1979-03-08 19:07:13.080 ,5,1,11.,12.0,0.,12.0,0.,12.0,0.,12.0
1979-03-08 19:07:25.080 ,5,1,2.,12.0,0.,12.0,0.,12.0,0.,12.0
1979-03-08 19:07:37.080 ,6,1,5.,12.0,1.,12.0,0.,12.0,0.,12.0
1979-03-08 19:07:49.080 ,6,1,7.,12.0,0.,12.0,0.,12.0,0.,12.0
1979-03-08 19:08:01.080 ,7,1,3.,12.0,0.,12.0,0.,12.0,0.,12.0
1979-03-08 19:08:13.080 ,7,1,0.,12.0,0.,12.0,0.,12.0,0.,12.0
1979-03-08 19:08:25.080 ,7,1,0.,12.0,0.,12.0,0.,12.0,0.,12.0
1979-03-08 19:08:37.080 ,7,1,0.,12.0,0.,12.0,0.,12.0,0.,12.0
1979-03-08 19:08:49.080 ,6,1,0.,12.0,0.,12.0,0.,12.0,0.,12.0
1979-03-08 19:09:01.080 ,6,1,1.,12.0,0.,12.0,0.,12.0,0.,12.0
1979-03-08 19:09:13.080 ,5,1,2.,12.0,0.,12.0,0.,12.0,0.,12.0
1979-03-08 19:09:25.080 ,5,1,6.,12.0,0.,12.0,0.,12.0,0.,12.0
1979-03-08 19:09:37.080 ,4,1,8.,12.0,0.,12.0,0.,12.0,0.,12.0
1979-03-08 19:09:49.080 ,4,1,12.,12.0,0.,12.0,0.,12.0,0.,12.0
1979-03-08 19:10:01.080 ,3,1,6.,12.0,0.,12.0,0.,12.0,0.,12.0
1979-03-08 19:10:13.080 ,3,1,11.,12.0,0.,12.0,0.,12.0,0.,12.0
1979-03-08 19:10:25.080 ,2,1,5.,12.0,0.,12.0,0.,12.0,0.,12.0
1979-03-08 19:10:37.080 ,2,1,4.,12.0,0.,12.0,0.,12.0,0.,12.0
1979-03-08 19:10:49.080 ,1,1,10.,12.0,0.,12.0,0.,12.0,0.,12.0
1979-03-08 19:11:01.080 ,1,1,8.,12.0,0.,12.0,0.,12.0,0.,12.0
1979-03-08 19:11:13.080 ,0,1,3.,12.0,0.,12.0,0.,12.0,0.,12.0
1979-03-08 19:11:25.080 ,0,1,5.,12.0,0.,12.0,0.,12.0,0.,12.0
1979-03-08 19:11:37.080 ,0,1,7.,12.0,0.,12.0,0.,12.0,0.,12.0
1979-03-08 19:11:49.080 ,0,1,5.,12.0,0.,12.0,0.,12.0,0.,12.0
1979-03-08 19:12:01.080 ,1,1,6.,12.0,0.,12.0,0.,12.0,0.,12.0
1979-03-08 19:12:13.080 ,1,1,6.,12.0,0.,12.0,0.,12.0,0.,12.0
1979-03-08 19:12:25.080 ,2,1,8.,12.0,0.,12.0,0.,12.0,0.,12.0
1979-03-08 19:12:37.080 ,2,1,7.,12.0,0.,12.0,0.,12.0,0.,12.0
1979-03-08 19:12:49.080 ,3,1,9.,12.0,0.,12.0,0.,12.0,0.,12.0
1979-03-08 19:13:01.080 ,3,1,6.,12.0,0.,12.0,0.,12.0,0.,12.0
1979-03-08 19:13:13.080 ,4,1,5.,12.0,0.,12.0,0.,12.0,0.,12.0
1979-03-08 19:13:25.080 ,4,1,5.,12.0,0.,12.0,0.,12.0,0.,12.0
1979-03-08 19:13:37.080 ,5,1,6.,12.0,0.,12.0,0.,12.0,0.,12.0
1979-03-08 19:13:49.080 ,5,1,8.,12.0,0.,12.0,0.,12.0,0.,12.0
1979-03-08 19:14:01.080 ,6,1,4.,12.0,0.,12.0,0.,12.0,0.,12.0
1979-03-08 19:14:13.080 ,6,1,2.,12.0,0.,12.0,0.,12.0,0.,12.0
